Wind_Speed
9 9 8 10 17 13 11 8 3 4 9 10 10 10 10 11 10 10 12 9 9 10 10 10 12 6 11 8 6 4 3 4 10
13 9 9 14 17 12 10 7 4 5 9 10 10 10 9 9 8 8 7 7 4 4 1 0 3 5 2 7 8 6 3 2 1
13 12 12 14 14 12 10 7 5 7 9 8 9 9 9 8 7 7 5 5 4 1 1 2 3 3 5 6 7 7 6 7 7
10 13 15 13 13 11 10 8 6 9 9 8 7 7 6 6 5 5 3 3 2 0 2 4 2 4 5 5 5 4 4 5 5
10 14 15 14 14 12 10 9 9 9 8 7 6 5 4 3 3 4 1 1 2 3 4 6 6 5 6 6 7 6 6 6 7
10 15 16 14 14 13 11 11 9 9 7 6 5 3 2 3 2 3 1 4 5 5 6 7 7 7 6 7 7 7 6 6 6
11 14 15 15 14 13 13 11 10 9 7 6 5 4 2 2 2 2 3 5 6 6 6 6 6 6 6 6 7 6 6 6 6
12 14 15 14 14 13 12 11 10 10 8 8 6 5 4 3 3 4 4 8 8 8 7 6 5 5 5 5 5 5 6 6 7
14 13 14 14 14 12 11 10 11 11 10 8 7 6 5 5 5 4 7 8 9 8 7 5 4 4 4 4 4 5 7 7 6
16 16 16 15 15 13 13 12 13 12 11 10 9 7 7 7 6 5 7 8 9 9 7 5 4 4 5 5 5 7 6 6 7
18 18 18 17 17 15 14 14 15 14 12 12 10 9 9 9 8 5 7 9 10 9 7 6 5 5 6 8 10 8 6 7 8
20 19 20 20 20 18 17 17 17 16 15 13 12 11 10 10 10 9 7 9 11 11 9 7 6 7 7 9 9 8 10 11 13
21 22 22 21 21 21 20 20 19 18 16 15 14 13 12 12 12 11 11 11 10 11 11 10 9 8 9 9 8 10 11 13 14
24 23 22 22 23 24 22 22 21 21 18 18 17 15 14 14 14 13 13 13 13 12 13 12 11 11 10 10 11 12 13 15 16
25 25 24 24 25 25 26 25 24 22 21 20 19 18 17 16 16 16 16 16 16 15 16 14 14 13 13 13 14 14 15 17 17
26 27 27 28 29 28 28 26 26 25 25 22 23 21 20 19 19 19 19 19 18 19 18 18 17 17 16 16 16 16 16 18 18
29 28 29 31 31 28 31 32 30 29 29 26 14 10 18 24 24 24 23 22 22 22 21 21 20 19 19 19 18 18 19 20 20
34 32 32 31 33 34 34 36 34 34 32 32 18 10 13 14 21 24 25 24 25 23 24 24 23 21 22 22 21 21 22 22 22
38 36 35 34 35 37 38 37 37 36 38 34 35 32 16 9 8 17 21 23 25 24 27 25 26 24 23 23 23 24 24 24 23
39 38 38 39 37 37 39 39 40 40 39 38 37 36 36 33 27 13 21 25 25 26 27 27 27 25 24 25 26 25 26 25 24
Wind_Direction
139 137 163 160 157 160 161 152 136 96 119 112 112 112 98 90 86 99 84 95 90 83 88 70 95 105 86 58 113 80 60 88 42
143 157 151 152 159 161 171 173 157 131 131 120 114 114 104 102 105 91 79 89 84 82 107 170 122 120 90 79 122 132 128 144 44
149 161 158 156 164 173 181 182 167 151 142 129 121 117 103 100 106 99 77 60 69 72 235 266 273 236 247 253 252 257 268 279 295
164 161 173 173 178 182 186 187 174 160 155 148 135 126 107 108 112 92 68 71 143 169 299 285 294 303 287 276 264 260 268 282 287
170 173 177 183 185 187 192 186 174 166 160 156 147 130 104 106 95 85 142 211 289 301 308 309 330 315 303 302 302 303 299 291 287
174 175 184 191 194 193 190 184 171 168 168 164 157 149 144 134 131 105 285 285 307 330 323 323 321 313 311 311 313 321 321 318 316
180 186 187 194 196 195 190 183 176 172 179 178 172 171 180 189 199 194 277 288 309 324 323 323 315 314 316 321 328 338 339 339 339
194 191 190 192 190 193 194 190 185 189 189 189 187 186 204 212 234 249 265 280 311 320 321 317 308 310 313 320 327 339 341 340 337
197 191 191 192 191 193 189 195 199 197 197 198 204 211 234 243 240 250 260 282 294 307 312 308 296 298 307 318 334 339 329 330 336
206 203 201 200 201 201 200 201 206 205 210 212 221 229 245 251 244 207 263 276 286 296 298 291 289 293 299 310 324 332 336 334 333
213 212 212 211 211 210 208 208 211 215 217 218 229 240 248 247 241 205 256 268 273 277 272 268 277 288 299 316 327 333 337 331 328
222 220 220 221 219 216 214 215 215 219 219 224 233 242 249 246 244 244 225 262 262 262 263 270 270 272 287 301 312 322 325 331 330
228 225 225 224 223 220 221 222 222 223 224 230 237 245 249 245 248 254 254 252 255 261 263 265 263 267 279 286 292 306 313 320 321
233 228 228 226 226 226 223 224 224 226 228 233 239 245 249 245 248 254 258 258 252 249 263 267 264 269 272 278 287 296 306 316 317
237 232 229 228 228 227 228 229 228 228 231 235 240 246 249 249 250 254 257 258 255 253 262 262 265 268 270 275 280 287 301 310 307
240 237 234 231 230 229 232 233 232 229 231 232 238 245 250 250 250 253 256 258 256 257 258 257 263 267 268 271 274 284 297 302 300
244 241 237 232 231 226 230 233 233 230 229 229 227 237 249 248 247 248 249 252 255 257 256 256 260 263 266 270 275 284 294 295 293
246 243 239 233 234 233 232 236 235 234 234 228 223 212 231 233 242 245 247 247 250 251 253 254 260 263 266 272 277 284 292 291 290
243 245 246 244 240 238 240 240 238 235 237 232 232 230 232 225 241 241 240 243 248 251 256 256 260 259 263 269 276 286 289 289 289
248 244 247 248 245 244 241 241 238 238 237 239 237 236 239 244 246 253 255 246 246 253 253 254 257 259 264 270 276 282 285 287 290
Height
1551 1552 1553 1553 1555 1556 1557 1558 1559 1558 1559 1559 1559 1559 1559 1560 1562 1561 1561 1560 1560 1560 1560 1560 1558 1559 1559 1557 1558 1558 1557 1557 1555
1552 1553 1554 1554 1555 1556 1558 1559 1559 1560 1560 1560 1560 1560 1561 1563 1564 1564 1563 1562 1562 1561 1561 1561 1561 1561 1560 1560 1559 1558 1558 1557 1557
1552 1553 1554 1555 1556 1557 1559 1559 1560 1560 1561 1561 1561 1562 1562 1563 1564 1565 1564 1563 1563 1562 1561 1561 1562 1561 1561 1561 1560 1559 1558 1558 1557
1552 1552 1554 1556 1557 1558 1558 1559 1560 1561 1561 1562 1562 1563 1563 1564 1565 1566 1567 1564 1564 1563 1562 1561 1561 1561 1560 1559 1559 1558 1558 1557 1556
1551 1552 1554 1555 1557 1557 1558 1559 1560 1561 1562 1563 1563 1564 1564 1565 1565 1566 1566 1565 1564 1562 1561 1561 1561 1560 1559 1558 1557 1557 1556 1556 1556
1551 1552 1554 1555 1556 1557 1557 1559 1560 1561 1562 1562 1563 1564 1565 1565 1566 1566 1565 1564 1564 1563 1561 1560 1559 1559 1558 1557 1556 1556 1555 1554 1554
1551 1552 1553 1555 1556 1557 1557 1558 1559 1561 1562 1562 1562 1563 1564 1564 1564 1564 1563 1563 1563 1562 1560 1559 1559 1558 1557 1557 1556 1555 1555 1554 1554
1550 1551 1552 1554 1556 1557 1557 1558 1559 1561 1561 1561 1562 1563 1563 1563 1563 1562 1562 1561 1562 1561 1559 1558 1558 1557 1557 1556 1556 1555 1554 1554 1553
1549 1551 1552 1554 1555 1557 1557 1559 1559 1560 1560 1561 1561 1562 1562 1562 1562 1560 1560 1560 1560 1559 1558 1557 1557 1556 1556 1556 1555 1555 1554 1553 1552
1547 1548 1550 1551 1553 1555 1556 1557 1558 1558 1559 1559 1560 1559 1560 1561 1561 1560 1558 1558 1559 1558 1557 1556 1556 1555 1555 1555 1554 1554 1553 1552 1552
1544 1546 1547 1549 1550 1552 1554 1554 1556 1557 1557 1557 1557 1558 1558 1559 1559 1560 1557 1557 1557 1557 1556 1555 1555 1555 1554 1554 1553 1553 1552 1551 1550
1541 1543 1544 1546 1547 1549 1550 1552 1553 1554 1555 1555 1555 1556 1556 1556 1557 1557 1557 1555 1556 1555 1555 1554 1554 1554 1553 1552 1552 1551 1550 1549 1549
1537 1539 1541 1542 1544 1546 1547 1548 1550 1551 1552 1552 1553 1554 1553 1554 1554 1554 1554 1553 1552 1553 1553 1553 1553 1553 1552 1551 1550 1549 1549 1547 1546
1533 1535 1538 1539 1540 1542 1543 1544 1546 1548 1548 1549 1550 1550 1550 1550 1550 1551 1551 1550 1550 1550 1550 1550 1550 1550 1550 1549 1548 1547 1546 1545 1543
1528 1530 1533 1535 1535 1537 1539 1540 1541 1543 1544 1545 1546 1546 1546 1546 1547 1547 1547 1547 1547 1548 1547 1547 1547 1547 1547 1547 1546 1545 1544 1542 1541
1524 1525 1527 1529 1529 1531 1533 1535 1536 1537 1540 1542 1542 1542 1542 1541 1542 1543 1543 1543 1543 1543 1544 1544 1543 1544 1544 1543 1543 1542 1541 1539 1538
1518 1519 1520 1522 1523 1526 1527 1529 1530 1532 1534 1537 1540 1540 1538 1536 1536 1536 1538 1538 1539 1539 1540 1540 1540 1540 1540 1539 1538 1537 1536 1535 1534
1511 1513 1514 1516 1517 1519 1520 1522 1524 1526 1529 1530 1534 1534 1532 1530 1530 1530 1531 1532 1533 1534 1534 1535 1535 1536 1536 1535 1533 1532 1531 1530 1529
1505 1506 1509 1510 1511 1513 1513 1516 1518 1520 1521 1524 1525 1526 1527 1528 1527 1526 1526 1526 1526 1527 1528 1529 1529 1529 1529 1530 1529 1527 1526 1525 1523
1497 1499 1501 1502 1503 1506 1507 1508 1511 1512 1515 1515 1517 1519 1520 1522 1523 1523 1522 1522 1521 1522 1524 1524 1524 1523 1523 1524 1522 1521 1520 1518 1517